Weather in Bondyug

Russia / Perm Krai     60°29′31″N   55°55′44″E
temp.,
°C
wind,
m/s
gust,
m/s
humid.,
%
clouds,
%
prec.,
mm/h
press.,
hPa
HPBL,
m
28 september, tue
tue2823:000ene26875 0.0 1032133
02:000ene2584100 0.0 1032112
05:000ne238550 0.0 103350
08:000ene1184100 0.0 103228
11:00+5nne1164100 0.0 1031334
14:00+7n2255100 0.0 1030920
17:00+7nnw2458100 0.0 10291095
20:00+2nne228151 0.0 103031
29 september, wed
wed2923:000n22875 0.0 103018
02:00−1n11925 0.0 103010
05:00−1n119422 0.0 103011
08:00+1n118698 0.0 103052
11:00+5nnw127184 0.0 1030415
14:00+7nnw227091 0.0 1030875
17:00+5nnw2485100 0.1 1030259
20:00+4wnw1293100 0.0 102979
30 september, thu
thu3023:00+4wnw1394100 0.0 1029109
02:00+3w239775 0.0 102883
05:00+3w2598100 0.0 1027125
08:00+4wsw2695100 0.0 1026199
11:00+6wsw2688100 0.1 1024270
14:00+6w2689100 0.0 1024384
17:00+8nw3688100 0.0 1024540
20:00+6nnw399299 0.0 1025594
1 october, fri
fri123:00+6nnw288169 0.0 1025369
02:00+3nnw2695100 0.0 1026136
05:00+3nnw259685 0.0 1026128
08:00+4nw2689100 0.0 1027322
11:00+6n256442 0.0 1027592
14:00+9nnw24460 0.0 1027926
17:00+8nnw24520 0.0 1027876
20:00+3nnw22785 0.0 102812
2 october, sat
sat223:00+2nnw228716 0.0 102814
02:00+1nw11945 0.0 102810
05:00+1nw119698 0.0 102810
08:00+3wnw1190100 0.0 102818
11:00+5wsw128399 0.0 1029149
14:00+9w237598 0.0 1029807
17:00+8wsw1175100 0.0 102925
20:00+8w2272100 0.0 102925